XRISM

Last updated on Sat Aug 15 2026 00:02:08 GMT+0000 (Coordinated Universal Time)

1 57800U 23137A 26226.58755525 .00002547 00000+0 13571-3 0 9993 2 57800 31.0035 341.1774 0007559 193.2134 166.8307 15.12891197161711
UTC large
Height (km)
Speed (km/s)
/
Latitude / Longitude
Inclination (degrees)
Orbital Period (minutes)
Azimuth
Elevation
Range (km)
Doppler Factor

Next 0 passes for location: London (51.5072 / 0.1276)

No passes found over London.
XRISM